SL-16 DEB

Satellite information

Favourite Embed

Satellite Type and Status

DEBRISIN ORBIT

Key statistics

Satellite SL-16 DEB at a glance.

Uptime

11822

Days in orbit

Revolutions

≈ 15.1

Per day

Orbit

LEO

Low Earth Orbit

Inclination

71.3

Latest

Satellite identification and parameters

Extended collection of information and parameters for SL-16 DEB.

Object identification

Identified? True

Debris? True

Object name: SL-16 DEB

International designator: 1992-093HD

Object number (NORAD): 22543

Object ID (CCSDS): 22543

Country: COMMONWEALTH OF INDEPENDENT STATES (CIS)

Current information (Y/N): Y

RCS size: SMALL

Orbital parameters

Period: 95.355 minutes

Inclination: 71.3389 deg

SMA: 6913.87 km

Apoapsis: 559.286 km

Periapsis: 512.183 km

RAAN: 334.7857 deg

Eccentricy: 0.0034064

Argument of periapsis: 143.2171 deg

Mean anomaly: 217.1351 deg

Mean motion: 15.10153146 rev/day

Mean motion (dot): 0.0014565 rev/day2

B* drag term: 0.0086271 1/REarth

Two-line elements (TLE)

Creation date: May 8, 2025, 3:01 a.m.

Reference frame: TEME

Reference center: EARTH

Epoch: May 7, 2025, 3:14 p.m. UTC

TLE line 0: 0 SL-16 DEB

TLE line 1: 1 22543U 92093HD 25127.63529526 .00145650 00000-0 86271-2 0 9991

TLE line 2: 2 22543 71.3389 334.7857 0034064 143.2171 217.1351 15.10153146665354

Live tracking on map

Real-time ground track for satellite SL-16 DEB.

In-orbit conjunctions

A list of the most updated potential collisions computed for object SL-16 DEB.

Target Orbit TCA Probability of collision Miss distance Type
ESSA 1 (OT-3) SSO 2024-06-19 13:12:18 0.0008425913 277.0 (m) PAYLOAD

Associated space launch

Second generation ELING satellite

SL-16 DEB was lifted into orbit during the mission ‘Zenit-2 | Tselina-2 12’, on board a Zenit-2 space rocket.

The launch took place on Dec. 25, 1992, 5:56 a.m. from 45/1.

For more information about the launch, click the button.

Launch to space Zenit-2 | Tselina-2 12
Zenit-2 | Tselina-2 12

Agency: N/A

Status: Launch Successful

Launch date: Dec. 25, 1992, 5:56 a.m. UTC

Rocket: Zenit-2

Launch pad: 45/1

Location: Baikonur Cosmodrome, Republic of Kazakhstan

...

Latest news about this satellite

There are no fresh news available about this satellite. Check back as we update our databases every day.


Newsletter sign-up

Weekly statistics, charts and insights to help you stay on top of the space industry.